Location: St Paul
(33.9360°N, 83.4200°W)
Time: 01:27:02
(UTC-05:00)

Atlas Centaur 2 - Pass Details

Date: 06 October 2017
Orbit: 459 x 1312 km, 30.4° (Epoch: 14 December)

Event Time Altitude Azimuth Distance (km) Brightness Sun altitude
Rises 20:28:21 0° 212° (SSW) 3,501 5.8 -16.9°
Reaches altitude 10° 20:31:17 10° 198° (SSW) 2,709 5.0 -17.5°
Maximum altitude 20:36:28 24° 148° (SSE) 2,106 3.9 -18.6°
Enters shadow 20:38:01 22° 130° (SE) 2,235 3.9 -18.9°
